Accueil
METAR-TAF:

METAR-TAF

Aéroports :

Aéroport de Troyes - Barberey

Troyes, France

latitude: 48-20N, longitude: 004-01E, altitude: 118 m

Observation

Le bulletin a été fait il y a 30 minutes, à 15:00 UTC
Vent 2 kt de direction variable
Température 5°C
Humidité 87%
Pression 1036 hPa
Visibilité: 9000 m
Quelques nuages à une hauteur de 1000 ft
Ciel couvert à une hauteur de 2000 ft

METAR: LFQB 221500Z AUTO VRB02KT 9000 FEW010 OVC020 05/03 Q1036

Heure: 16:30 (15:30 UTC)


TAF: absent

Observations et prévisions météorologiques de plus de 4000 aéroports (messages METAR et TAF).

Les stations disponibles sont représentées par des disques jaunes et rouges sur la carte.

Passer la souris dessus pour voir le nom de la station.

Cliquer dessus pour voir les observations et prévisions météorologiques.

Pour changer de carte: cliquez sur les boutons verts avec une croix noire pour zoomer, sur le bouton vert avec un tiret pour effectuer un zoom arrière, ou sur les flèches vertes pour les cartes adjacentes.


METAR-TAF: